Location: Dammartin
(48.9032°N, 1.6195°E)
Time: 11:11:33
(UTC+00:00)

NOAA 6 - Pass Details

Date: 03 February 2023
Orbit: 770 x 786 km, 98.7° (Epoch: 30 March)

Event Time Altitude Azimuth Distance (km) Brightness Sun altitude
Rises 17:45:47 0° 168° (SSE) 3,249 7.3 -8.9°
Reaches altitude 10° 17:48:05 10° 170° (S) 2,328 6.6 -9.2°
Maximum altitude 17:53:13 75° 256° (WSW) 815 4.3 -10.0°
Drops below altitude 10° 17:58:25 10° 342° (NNW) 2,355 6.6 -10.9°
Sets 18:00:46 0° 345° (NNW) 3,290 7.3 -11.3°
